Location: *
(49.5667°N, 1.3667°W)
Time: 09:06:52
(UTC+00:00)

Cosmos 2333 Rocket - Pass Details

Date: 20 September 2019
Orbit: 840 x 862 km, 70.8° (Epoch: 19 October)

Event Time Altitude Azimuth Distance (km) Brightness Sun altitude
Rises 19:05:43 0° 327° (NNW) 3,423 6.1 -10.0°
Reaches altitude 10° 19:08:13 10° 323° (NW) 2,487 5.5 -10.4°
Maximum altitude 19:13:43 51° 249° (WSW) 1,070 3.1 -11.2°
Drops below altitude 10° 19:19:13 10° 175° (S) 2,485 4.4 -12.1°
Sets 19:21:44 0° 170° (S) 3,420 5.1 -12.5°
